Date String (YYYY-MM-DD hh:mm:ss) UTC,Instrument flags,Ambient pressure (hPa),Sample flow (lpm),Bypass flow (lpm),Sample temperature (°C),Ambient temperature (°C),ASC tube jacket temperature (°C),LED temperature (°C),Box temperature (°C),Sample RH (%),Span deviation,Mass concentration (μg/m³),Mass concentration (μg/m³),Mass concentration (μg/m³)
DateTimeUTC,F1_M11,P_M11,Q1_M11,Q2_M11,T1_M11,T2_M11,T3_M11,T4_M11,T5_M11,U1_M11,ZSPAN_M11,X0_M11,X2_M11,X1_M11
2021-09-03 03:00:00,,0827.7,5.00,0.00,29.5,28.0,00.0,38.5,31.2,31.4,0001.5,0017.56,0014.73,0014.37
2021-09-03 03:01:00,,0827.7,5.01,0.00,29.4,26.4,00.0,38.5,30.8,31.4,0001.7,0017.52,0014.73,0014.37
2021-09-03 03:02:00,,0827.7,4.99,0.00,29.3,25.8,00.0,38.5,30.6,31.6,0001.7,0017.34,0014.70,0014.37
2021-09-03 03:03:00,,0827.7,5.01,0.00,29.2,26.1,00.0,38.5,30.6,31.0,0001.7,0017.13,0014.66,0014.35
2021-09-03 03:04:00,,0827.7,5.00,0.00,29.1,26.5,00.0,38.4,30.7,31.0,0001.7,0017.18,0014.66,0014.33
2021-09-03 03:05:00,,0827.7,5.00,0.00,29.1,26.9,00.0,38.4,30.7,30.4,0001.7,0017.25,0014.66,0014.30
2021-09-03 03:06:00,,0827.7,5.00,0.00,29.1,27.2,00.0,38.4,30.8,30.2,0001.8,0017.29,0014.66,0014.26
2021-09-03 03:07:00,,0827.8,5.00,0.00,29.1,27.4,00.0,38.4,30.8,30.6,0002.1,0017.38,0014.62,0014.21
2021-09-03 03:08:00,,0827.7,5.02,0.00,29.2,27.6,00.0,38.3,30.9,30.5,0002.0,0017.16,0014.54,0014.15
2021-09-03 03:09:00,,0827.7,5.00,0.00,29.2,27.7,00.0,38.3,30.9,29.9,0002.0,0017.03,0014.41,0014.03
2021-09-03 03:10:00,,0827.8,4.99,0.00,29.2,27.9,00.0,38.4,30.9,29.7,0002.1,0016.89,0014.27,0013.88
2021-09-03 03:11:00,,0827.8,5.02,0.00,29.2,28.0,00.0,38.4,31.0,29.9,0002.1,0016.72,0014.09,0013.70
2021-09-03 03:12:00,,0827.7,4.98,0.00,29.3,28.0,00.0,38.4,31.0,30.1,0002.2,0016.64,0013.95,0013.55
2021-09-03 03:13:00,,0827.7,5.00,0.00,29.3,28.1,00.0,38.4,31.0,30.3,0002.4,0016.35,0013.83,0013.42
2021-09-03 03:14:00,,0827.7,5.00,0.00,29.3,28.2,00.0,38.4,31.0,30.2,0002.5,0016.05,0013.71,0013.31
2021-09-03 03:15:00,,0827.7,4.99,0.00,29.3,28.2,00.0,38.4,31.1,30.5,0002.3,0016.03,0013.63,0013.24
2021-09-03 03:16:00,,0827.7,5.01,0.00,29.4,28.3,00.0,38.4,31.1,30.7,0002.3,0015.99,0013.58,0013.20
2021-09-03 03:17:00,,0827.7,4.99,0.00,29.4,28.3,00.0,38.4,31.1,30.6,0002.2,0016.04,0013.49,0013.16
2021-09-03 03:18:00,,0827.8,5.00,0.00,29.4,28.3,00.0,38.4,31.1,30.3,0002.3,0016.46,0013.46,0013.14
2021-09-03 03:19:00,,0827.8,5.00,0.00,29.4,28.4,00.0,38.5,31.2,29.6,0002.5,0016.45,0013.48,0013.16
2021-09-03 03:20:00,,0827.8,5.01,0.00,29.5,28.4,00.0,38.5,31.2,30.0,0002.2,0016.48,0013.52,0013.22
2021-09-03 03:21:00,,0827.8,4.99,0.00,29.5,28.4,00.0,38.5,31.2,29.9,0002.0,0016.53,0013.58,0013.28
2021-09-03 03:22:00,,0827.8,5.00,0.00,29.5,28.5,00.0,38.5,31.2,29.4,0001.9,0016.69,0013.66,0013.34
2021-09-03 03:23:00,,0827.9,5.01,0.00,29.5,28.5,00.0,38.5,31.3,29.4,0001.5,0016.66,0013.68,0013.38
2021-09-03 03:24:00,,0827.8,5.00,0.00,29.5,28.6,00.0,38.6,31.3,29.4,0001.4,0016.61,0013.66,0013.37
2021-09-03 03:25:00,,0827.9,5.00,0.00,29.6,28.6,00.0,38.6,31.3,29.0,0001.4,0016.57,0013.63,0013.33
2021-09-03 03:26:00,,0827.8,5.00,0.00,29.6,28.6,00.0,38.6,31.4,28.8,0001.3,0016.43,0013.57,0013.28
2021-09-03 03:27:00,,0827.8,5.00,0.00,29.6,28.6,00.0,38.6,31.4,28.9,0001.5,0016.31,0013.49,0013.20
2021-09-03 03:28:00,,0827.8,5.00,0.00,29.6,27.8,00.0,38.6,31.2,28.6,0001.6,0016.04,0013.42,0013.12
2021-09-03 03:29:00,,0827.9,5.01,0.00,29.5,26.2,00.0,38.6,30.8,28.6,0001.6,0015.39,0013.33,0013.04
2021-09-03 03:30:00,,0827.9,5.00,0.00,29.3,26.0,00.0,38.6,30.7,29.3,0001.8,0015.34,0013.26,0012.95
2021-09-03 03:31:00,,0827.9,4.99,0.00,29.3,26.3,00.0,38.5,30.8,29.4,0001.8,0015.26,0013.18,0012.86
2021-09-03 03:32:00,,0827.9,4.99,0.00,29.2,26.8,00.0,38.5,30.8,29.9,0002.0,0015.13,0013.07,0012.76
2021-09-03 03:33:00,,0827.9,5.01,0.00,29.2,27.1,00.0,38.5,30.9,29.6,0002.2,0014.99,0012.96,0012.67
2021-09-03 03:34:00,,0827.9,4.99,0.00,29.2,27.4,00.0,38.4,30.9,29.7,0002.6,0014.96,0012.89,0012.57
2021-09-03 03:35:00,,0827.9,5.01,0.00,29.3,27.6,00.0,38.4,31.0,29.8,0002.6,0014.95,0012.83,0012.51
2021-09-03 03:36:00,,0827.9,4.98,0.00,29.3,27.8,00.0,38.4,31.0,30.2,0002.5,0014.93,0012.82,0012.50
2021-09-03 03:37:00,,0827.9,5.02,0.00,29.3,28.0,00.0,38.4,31.0,30.3,0002.9,0014.81,0012.77,0012.46
2021-09-03 03:38:00,,0827.9,4.99,0.00,29.3,28.1,00.0,38.4,31.1,29.9,0002.9,0014.82,0012.75,0012.44
2021-09-03 03:39:00,,0827.9,5.00,0.00,29.4,28.2,00.0,38.5,31.1,29.3,0002.8,0014.78,0012.74,0012.44
2021-09-03 03:40:00,,0827.9,5.00,0.00,29.4,28.2,00.0,38.5,31.1,29.6,0002.7,0014.88,0012.77,0012.47
2021-09-03 03:41:00,,0827.9,5.00,0.00,29.4,28.3,00.0,38.5,31.2,29.5,0002.5,0014.91,0012.79,0012.49
2021-09-03 03:42:00,,0827.9,4.99,0.00,29.5,28.4,00.0,38.5,31.2,29.5,0002.4,0015.01,0012.84,0012.53
2021-09-03 03:43:00,,0827.9,5.00,0.00,29.5,28.4,00.0,38.5,31.3,29.4,0002.4,0015.11,0012.90,0012.57
2021-09-03 03:44:00,,0827.9,5.01,0.00,29.5,28.5,00.0,38.5,31.3,30.0,0002.4,0015.13,0012.93,0012.61
2021-09-03 03:45:00,,0827.8,4.98,0.00,29.5,28.5,00.0,38.5,31.3,29.5,0001.8,0015.13,0012.99,0012.68
2021-09-03 03:46:00,,0827.9,4.99,0.00,29.6,28.5,00.0,38.6,31.3,29.6,0001.7,0015.16,0013.06,0012.75
2021-09-03 03:47:00,,0827.9,5.01,0.00,29.6,28.6,00.0,38.6,31.4,29.7,0001.7,0015.21,0013.12,0012.81
2021-09-03 03:48:00,,0827.9,4.99,0.00,29.6,28.6,00.0,38.6,31.4,29.7,0001.5,0015.35,0013.23,0012.91
2021-09-03 03:49:00,,0828.0,5.01,0.00,29.6,28.7,00.0,38.6,31.4,29.4,0001.6,0015.36,0013.29,0013.01
2021-09-03 03:50:00,,0828.5,5.00,0.00,29.7,28.7,00.0,38.6,31.5,29.5,0001.8,0015.48,0013.40,0013.10
2021-09-03 03:51:00,,0828.5,5.00,0.00,29.7,28.8,00.0,38.7,31.5,29.5,0002.0,0015.48,0013.47,0013.16
2021-09-03 03:52:00,,0828.8,4.99,0.00,29.7,28.8,00.0,38.7,31.6,29.0,0002.1,0015.67,0013.53,0013.21
2021-09-03 03:53:00,,0829.0,5.01,0.00,29.8,28.9,00.0,38.7,31.6,29.0,0002.1,0016.16,0013.57,0013.25
2021-09-03 03:54:00,,0829.0,5.00,0.00,29.8,28.9,00.0,38.7,31.6,29.0,0001.9,0016.45,0013.70,0013.37
2021-09-03 03:55:00,,0829.1,5.00,0.00,29.8,29.0,00.0,38.8,31.6,29.0,0001.7,0017.12,0013.84,0013.47
2021-09-03 03:56:00,,0829.1,5.00,0.00,29.8,29.0,00.0,38.8,31.6,28.9,0002.0,0018.18,0013.93,0013.55
2021-09-03 03:57:00,,0828.8,5.01,0.00,29.9,29.0,00.0,38.8,31.7,28.5,0002.1,0018.26,0014.01,0013.62
2021-09-03 03:58:00,,0828.8,4.98,0.00,29.9,29.1,00.0,38.8,31.7,28.6,0002.2,0018.47,0014.08,0013.68
2021-09-03 03:59:00,,0829.2,5.01,0.00,29.9,28.0,00.0,38.8,31.4,28.5,0002.4,0018.56,0014.12,0013.73
